Wind_Speed
2 9 19 37 7 2 12 12 16 11 11 16 13 18 13 18 10 4 23 17 21 19 18 15 13 12 12 12 12 11 11 10 8 8 7 8 9 8 9 9 9 9 9 7 6 7 7 7 7
4 5 5 8 4 4 4 11 15 13 17 11 8 7 22 16 13 26 20 20 22 14 16 14 13 13 12 12 12 11 10 9 8 7 9 9 9 10 9 10 9 10 10 10 9 9 8 8 8
3 8 9 3 3 5 10 11 15 14 12 9 6 14 12 20 25 20 22 23 16 10 13 12 13 14 13 13 12 12 11 9 9 10 10 11 11 11 10 9 9 10 10 11 12 12 11 10 9
8 16 6 2 5 16 17 14 17 13 9 3 17 12 22 19 19 22 23 20 20 17 10 9 13 15 14 13 12 11 11 11 11 11 12 11 11 11 9 10 10 9 10 11 10 10 9 8 8
9 11 4 4 16 16 14 13 12 11 10 9 21 18 19 14 22 23 22 22 19 17 10 11 14 15 14 13 12 12 11 11 11 11 11 11 9 10 10 9 9 9 9 8 7 7 7 6 6
8 5 1 8 13 13 12 9 12 15 14 10 20 18 13 16 22 20 19 17 21 19 14 14 16 14 13 13 12 12 12 12 11 11 11 9 11 10 8 8 8 8 8 7 5 5 5 5 4
3 5 5 7 14 11 10 10 11 13 12 14 18 15 14 18 19 19 17 16 16 18 11 13 14 13 13 12 12 12 11 11 12 11 9 11 10 8 8 7 7 7 6 5 4 2 2 3 4
10 5 7 9 4 17 6 11 12 14 18 13 15 7 17 21 20 18 16 15 15 14 14 12 10 11 12 14 13 12 11 12 12 9 10 12 10 8 9 9 8 7 5 3 2 2 2 2 3
9 4 5 5 4 12 13 12 13 15 13 9 2 19 21 22 20 18 16 15 14 15 16 17 11 7 7 8 11 11 11 10 11 9 11 10 10 8 6 7 5 5 3 3 5 6 5 4 4
6 4 2 13 8 6 10 14 14 11 13 12 20 22 23 22 20 19 17 16 16 15 16 18 13 16 11 10 7 8 9 9 9 10 13 15 9 2 2 3 3 2 2 3 9 8 9 8 10
5 5 10 10 12 8 12 9 29 0 3 17 20 22 21 22 18 18 16 16 16 15 15 15 15 17 14 19 6 6 3 6 7 8 14 10 10 8 7 1 1 1 4 8 9 9 14 16 11
7 22 6 7 6 9 10 6 18 11 10 16 20 20 23 21 18 17 15 16 16 15 14 15 20 13 17 19 8 12 9 9 8 10 14 5 14 7 9 8 1 2 6 4 6 6 8 10 15
9 8 10 5 3 11 6 5 5 12 13 15 19 20 20 19 16 16 15 15 15 16 16 15 17 16 14 15 11 15 13 15 9 9 14 8 13 7 11 9 8 5 5 9 9 9 9 9 11
12 7 9 5 4 4 9 6 3 13 12 16 18 18 17 18 16 16 14 15 17 17 17 17 16 23 12 16 17 16 10 15 14 9 10 15 13 11 7 9 5 3 5 8 13 15 12 6 11
34 10 13 11 7 1 13 4 12 23 12 14 16 16 16 16 15 16 14 15 16 18 17 19 17 17 19 18 19 22 11 8 15 12 13 12 16 10 13 5 2 4 7 11 9 13 12 11 12
19 9 9 13 23 23 8 6 8 24 14 17 14 13 14 15 15 15 14 15 16 16 19 19 17 17 19 19 24 24 13 13 13 15 16 15 17 12 9 10 8 10 12 10 6 9 7 10 7
6 4 13 10 19 10 22 6 20 12 25 19 16 17 14 15 14 15 15 16 17 16 19 19 19 20 20 19 19 21 16 17 13 13 15 11 14 15 14 8 8 12 14 7 10 9 3 4 7
7 6 8 14 11 13 16 5 19 34 21 36 21 18 18 17 17 17 17 16 18 18 20 22 21 20 20 19 18 18 16 19 17 16 15 15 12 12 14 13 11 11 6 11 10 11 10 13 12
4 3 7 10 19 11 14 7 4 29 31 32 23 24 20 18 19 20 18 19 20 20 20 24 22 22 24 22 22 19 20 18 17 18 16 15 10 12 12 10 13 14 15 9 3 10 9 10 11
8 10 11 15 16 17 2 20 23 13 18 27 22 21 22 22 19 23 24 22 22 24 23 23 26 26 25 24 20 19 17 19 17 17 21 24 16 15 15 14 17 19 17 16 20 17 13 13 16
9 11 8 9 5 11 6 17 17 26 34 9 3 28 23 25 25 31 33 28 27 29 30 27 26 29 30 25 20 22 20 20 19 19 22 23 23 18 16 21 13 12 8 10 10 15 15 15 19
3 7 11 9 4 4 15 5 4 15 20 3 3 3 6 27 22 19 31 35 34 33 32 28 26 27 24 27 24 26 26 22 19 16 18 24 23 19 22 19 23 15 12 12 14 13 16 17 17
9 10 10 14 10 5 5 9 6 15 9 11 13 12 8 12 22 30 29 35 35 33 33 28 30 26 25 26 27 25 24 23 17 20 17 17 20 21 22 19 18 16 15 15 15 14 15 15 14
12 14 14 16 11 6 8 7 8 7 9 10 10 11 12 12 13 9 30 32 27 34 27 40 34 29 27 27 31 29 28 22 19 18 19 17 17 17 18 17 14 14 15 16 15 15 16 16 17
13 14 4 5 3 3 7 1 10 15 11 7 4 4 4 8 10 9 23 30 33 32 30 35 38 35 31 29 28 29 18 22 19 16 15 15 13 12 12 14 13 13 14 17 15 16 16 13 11
12 9 10 12 9 3 4 4 8 15 16 11 9 7 6 6 12 13 13 22 27 34 27 38 30 38 35 35 24 15 24 23 17 16 20 20 16 15 11 17 12 12 17 17 13 11 11 11 7
6 10 16 10 14 6 5 12 18 10 12 15 10 13 15 5 4 8 15 12 9 13 22 23 22 31 35 33 24 27 28 30 26 23 24 23 17 9 25 18 15 16 9 7 10 10 9 7 6
8 8 8 6 5 7 10 8 10 10 10 10 9 11 11 9 4 1 7 12 10 4 6 15 17 24 27 31 30 29 30 24 21 13 21 18 23 14 10 12 13 11 15 19 13 11 11 12 10
8 6 11 11 6 6 10 7 12 9 6 6 7 10 11 8 10 4 7 7 7 6 5 10 16 20 22 26 28 32 34 29 31 23 18 19 15 13 19 14 11 8 8 12 15 11 8 11 13
8 8 10 8 11 11 12 10 6 7 3 7 10 14 12 5 5 4 5 8 10 13 14 9 12 19 22 22 28 30 30 28 26 29 22 24 18 15 17 16 11 10 8 12 11 11 11 11 12
Wind_Direction
315 351 7 340 291 49 112 105 92 117 85 69 52 81 52 48 83 95 142 135 139 136 140 139 137 131 131 137 137 142 145 141 128 107 114 118 121 121 113 108 110 105 103 109 127 138 132 128 124
234 348 54 211 259 121 119 111 93 79 91 91 76 26 69 69 93 130 128 137 145 135 143 141 142 135 134 137 135 136 147 146 135 118 121 120 122 116 112 111 110 112 106 100 101 114 120 119 120
115 185 178 175 216 139 107 100 77 94 112 115 92 44 53 101 116 127 135 138 142 142 144 140 144 139 137 135 134 139 144 144 134 130 126 123 125 117 121 117 115 120 111 105 96 98 102 106 118
302 234 216 189 105 85 93 92 110 117 127 45 114 81 101 110 122 136 139 146 138 143 156 152 141 141 141 139 139 138 139 135 132 132 129 127 125 118 123 125 131 128 112 107 103 103 103 106 108
255 278 277 217 84 81 73 92 121 110 126 112 103 108 109 103 126 136 137 139 144 147 162 164 145 142 144 142 139 140 143 140 139 140 136 134 132 123 129 130 133 133 127 116 109 103 100 98 93
332 294 268 121 99 101 91 99 103 86 96 94 96 124 115 125 136 140 139 144 142 134 142 163 146 148 143 141 144 145 146 142 139 140 140 136 142 135 145 145 144 140 140 134 127 122 123 118 112
40 304 264 129 96 85 79 113 102 98 124 117 133 125 134 143 144 144 144 145 150 138 135 154 151 149 148 152 151 151 150 148 152 149 146 138 133 143 144 135 135 138 139 133 123 122 120 98 89
173 259 29 47 342 95 107 74 64 92 81 127 142 131 156 154 150 148 150 148 154 146 140 144 168 155 156 159 158 156 150 148 147 159 151 148 146 139 126 120 115 121 117 98 67 37 22 20 1
354 278 67 136 216 109 140 128 73 95 122 116 68 137 152 154 154 153 158 153 150 153 147 153 150 147 145 166 165 161 159 162 162 162 148 138 113 124 115 112 111 110 86 33 2 346 335 346 312
34 299 144 129 174 239 130 93 133 135 146 130 92 116 143 156 159 160 166 164 164 170 160 161 167 158 153 167 158 155 161 149 142 148 133 115 139 44 270 61 89 81 46 23 1 355 348 316 305
213 241 73 38 158 138 128 97 111 2 324 142 134 141 152 160 167 167 176 171 171 176 169 172 167 161 172 190 175 138 140 155 143 161 144 111 201 213 205 291 167 58 6 2 312 339 338 331 254
183 230 90 151 137 126 101 155 126 145 108 126 143 152 156 165 173 174 181 173 176 180 176 176 168 159 169 188 133 168 185 180 201 196 162 172 175 213 195 228 323 304 265 292 323 313 294 332 337
295 253 139 90 207 109 121 44 80 96 104 124 144 156 161 168 174 177 183 178 181 178 180 183 171 172 173 172 166 179 193 172 183 215 186 172 159 214 216 199 178 233 271 313 307 303 291 331 337
237 115 155 161 137 130 190 138 257 123 133 135 151 164 170 172 174 174 182 182 183 182 185 186 189 182 179 173 183 177 181 183 175 214 212 175 171 215 227 242 213 201 272 273 283 304 290 8 337
23 8 354 178 181 138 110 3 28 288 152 144 160 173 177 181 179 177 185 185 189 182 189 192 192 204 190 195 189 185 176 195 181 196 224 213 178 215 189 237 333 277 279 270 313 342 349 333 340
42 12 342 303 344 326 237 113 261 258 246 160 169 176 183 186 185 182 181 184 185 183 190 192 191 196 191 209 202 193 182 195 196 190 224 228 202 192 217 200 211 259 248 291 297 287 287 348 337
103 162 256 287 323 316 281 189 221 195 328 166 169 174 187 194 196 184 181 189 182 189 189 191 189 199 197 203 205 185 187 191 204 199 221 242 222 210 208 196 256 255 266 226 246 302 319 317 301
177 212 217 190 243 260 272 304 145 138 208 255 175 183 181 193 195 188 192 189 186 189 191 193 197 197 206 207 194 188 194 194 199 206 211 236 243 227 230 202 226 259 245 235 240 258 274 293 301
151 38 299 199 216 218 232 262 352 163 167 281 168 185 191 189 193 191 190 189 188 187 193 194 199 191 205 206 196 199 196 202 196 209 202 223 205 235 252 235 226 248 220 206 260 266 283 282 307
104 121 271 254 159 208 67 29 19 347 194 220 175 188 199 191 191 188 184 193 195 192 199 204 197 196 206 209 207 188 193 208 206 209 212 210 227 219 231 260 221 227 220 233 255 265 271 290 304
8 324 325 334 303 38 20 33 48 322 315 46 339 188 189 210 199 191 182 191 198 199 199 209 207 204 208 208 202 188 205 215 216 221 225 227 233 230 223 247 225 250 264 195 234 259 279 292 301
325 279 305 317 76 172 254 147 256 230 255 162 203 63 224 202 200 234 185 185 198 201 203 210 215 207 208 197 201 196 199 210 213 213 230 215 212 201 238 235 250 246 254 250 256 262 275 289 290
328 329 300 291 266 185 297 129 210 206 201 61 56 37 12 331 206 203 193 202 203 201 188 211 222 217 211 200 195 205 207 210 212 233 230 221 223 227 228 243 248 259 230 237 253 264 278 286 275
306 271 261 287 277 337 80 152 164 128 66 45 39 32 7 349 308 251 204 213 201 208 209 196 217 221 218 218 199 205 210 202 216 222 223 233 243 237 236 225 227 228 225 246 245 261 275 270 263
286 300 314 284 75 291 80 74 108 119 112 107 110 48 33 3 326 295 195 207 211 200 183 233 211 216 218 222 221 204 203 223 227 224 209 204 201 206 238 239 232 220 228 240 253 262 266 256 255
305 325 338 334 356 277 150 92 137 124 127 148 69 29 132 83 1 347 304 220 210 195 210 199 204 207 211 211 218 270 221 223 248 248 241 250 246 248 234 216 245 267 260 258 251 238 242 240 263
337 304 356 309 292 294 17 33 84 96 129 67 32 12 345 67 81 343 333 352 84 193 184 200 200 207 209 218 230 222 229 212 237 273 277 268 274 302 257 260 265 260 241 248 246 264 268 255 286
229 333 314 337 309 328 351 314 79 62 40 22 357 351 55 11 84 4 305 305 306 302 201 225 230 228 221 228 244 236 221 194 218 293 243 275 252 245 237 240 274 258 247 251 249 279 240 230 230
180 265 318 297 273 295 285 327 103 88 41 357 356 31 33 11 16 4 316 291 272 260 268 212 238 235 235 236 237 214 211 221 219 237 224 216 211 210 225 265 257 251 228 234 242 242 208 187 181
275 310 298 301 307 309 314 303 28 88 145 24 1 66 43 19 37 3 291 267 270 265 258 239 228 223 230 221 218 219 222 205 225 224 226 212 214 249 265 262 228 221 233 230 214 212 195 194 203
Height
1499 1498 1504 1486 1500 1485 1482 1476 1471 1479 1482 1487 1493 1513 1498 1502 1506 1526 1527 1531 1534 1536 1539 1541 1543 1545 1547 1549 1551 1553 1556 1557 1559 1560 1562 1563 1565 1566 1566 1566 1566 1565 1564 1562 1562 1564 1566 1568 1570
1500 1503 1507 1505 1512 1490 1490 1468 1478 1480 1485 1493 1495 1500 1503 1505 1506 1517 1526 1532 1534 1537 1540 1542 1544 1546 1548 1550 1552 1554 1556 1558 1560 1561 1563 1565 1566 1567 1567 1566 1566 1566 1565 1565 1565 1567 1570 1571 1572
1500 1499 1493 1503 1493 1490 1486 1472 1480 1486 1491 1490 1496 1499 1503 1513 1516 1521 1528 1534 1534 1538 1541 1542 1544 1547 1549 1551 1553 1555 1557 1559 1561 1562 1564 1566 1567 1567 1567 1567 1567 1568 1568 1568 1568 1570 1572 1571 1572
1495 1494 1489 1494 1481 1470 1472 1474 1482 1488 1492 1492 1494 1505 1513 1517 1520 1525 1530 1534 1536 1538 1541 1543 1545 1547 1549 1551 1554 1556 1558 1560 1562 1563 1565 1567 1567 1567 1568 1568 1569 1570 1571 1570 1570 1571 1572 1572 1574
1492 1480 1492 1482 1474 1472 1472 1475 1478 1482 1489 1493 1497 1510 1516 1521 1524 1529 1532 1535 1535 1538 1541 1544 1546 1548 1550 1552 1555 1557 1559 1561 1563 1564 1566 1567 1568 1568 1568 1570 1571 1572 1572 1571 1571 1572 1574 1575 1577
1495 1488 1486 1480 1477 1473 1475 1476 1477 1483 1490 1498 1502 1512 1519 1523 1527 1531 1534 1536 1535 1538 1540 1544 1547 1549 1552 1554 1556 1558 1560 1562 1564 1565 1567 1568 1568 1569 1569 1571 1573 1574 1573 1572 1571 1571 1572 1574 1577
1505 1508 1490 1467 1479 1479 1480 1482 1479 1486 1491 1497 1505 1511 1521 1525 1529 1532 1535 1538 1536 1539 1541 1545 1547 1550 1552 1555 1557 1559 1561 1563 1564 1566 1568 1569 1569 1569 1570 1572 1574 1575 1573 1572 1571 1571 1574 1578 1579
1511 1478 1488 1480 1494 1487 1481 1482 1484 1486 1493 1499 1500 1510 1519 1524 1528 1532 1535 1538 1541 1540 1543 1546 1549 1551 1553 1555 1557 1559 1561 1563 1566 1567 1568 1569 1570 1570 1571 1574 1576 1576 1574 1571 1572 1574 1575 1577 1580
1503 1504 1509 1490 1496 1484 1482 1483 1488 1492 1497 1499 1502 1505 1516 1523 1528 1532 1535 1538 1541 1543 1545 1547 1550 1553 1555 1557 1558 1560 1563 1564 1566 1568 1569 1570 1570 1572 1574 1576 1578 1577 1574 1572 1573 1575 1576 1578 1576
1506 1505 1483 1476 1485 1484 1479 1483 1489 1494 1495 1500 1504 1509 1516 1523 1527 1531 1534 1538 1541 1543 1546 1548 1549 1553 1556 1559 1560 1562 1564 1565 1567 1569 1570 1570 1572 1573 1574 1578 1579 1577 1574 1573 1574 1577 1580 1580 1577
1506 1501 1474 1476 1477 1478 1479 1481 1488 1493 1503 1497 1504 1511 1517 1522 1527 1530 1533 1536 1540 1543 1546 1547 1549 1553 1556 1558 1560 1562 1565 1566 1568 1569 1571 1571 1574 1575 1576 1579 1579 1577 1575 1573 1574 1578 1581 1581 1560
1493 1485 1481 1483 1480 1480 1483 1483 1489 1491 1493 1496 1504 1511 1516 1521 1525 1529 1532 1535 1539 1543 1546 1549 1548 1553 1556 1558 1560 1563 1565 1568 1569 1570 1571 1572 1574 1574 1576 1579 1580 1578 1576 1573 1574 1578 1581 1584 1574
1491 1478 1481 1483 1481 1481 1485 1485 1485 1492 1495 1500 1506 1512 1516 1520 1524 1527 1531 1534 1538 1542 1546 1549 1550 1553 1557 1557 1561 1564 1566 1567 1569 1570 1572 1573 1573 1574 1573 1576 1579 1580 1578 1574 1574 1575 1580 1581 1581
1482 1477 1483 1485 1482 1483 1483 1487 1491 1493 1497 1502 1508 1512 1516 1517 1521 1525 1529 1532 1536 1540 1544 1548 1548 1551 1554 1557 1559 1562 1565 1566 1568 1569 1569 1570 1571 1572 1573 1575 1578 1581 1581 1577 1573 1573 1575 1577 1575
1486 1497 1485 1481 1482 1482 1485 1495 1502 1500 1498 1504 1507 1511 1514 1517 1519 1522 1527 1531 1535 1538 1542 1545 1547 1550 1553 1555 1556 1560 1563 1564 1567 1569 1568 1570 1570 1571 1572 1574 1577 1580 1581 1578 1576 1573 1573 1576 1574
1514 1517 1521 1490 1492 1493 1483 1521 1511 1501 1501 1501 1505 1509 1512 1515 1517 1520 1525 1529 1533 1536 1540 1543 1546 1548 1551 1553 1555 1558 1561 1564 1565 1567 1566 1566 1568 1569 1570 1573 1575 1577 1578 1579 1579 1577 1575 1575 1574
1519 1538 1531 1514 1495 1500 1485 1504 1495 1507 1505 1494 1499 1504 1509 1513 1516 1518 1522 1527 1530 1534 1537 1541 1543 1545 1548 1550 1553 1556 1559 1561 1564 1565 1565 1565 1566 1567 1569 1571 1573 1574 1574 1575 1576 1573 1576 1577 1578
1523 1525 1517 1515 1498 1488 1487 1481 1491 1491 1497 1489 1490 1498 1502 1508 1512 1515 1520 1525 1528 1532 1534 1538 1540 1544 1545 1548 1551 1554 1557 1558 1561 1563 1565 1564 1565 1567 1568 1569 1570 1570 1571 1571 1572 1572 1574 1574 1578
1497 1500 1501 1485 1485 1487 1480 1472 1474 1482 1485 1491 1480 1491 1496 1500 1505 1510 1516 1521 1525 1528 1530 1534 1536 1540 1541 1544 1548 1551 1553 1556 1558 1560 1561 1561 1563 1564 1566 1567 1566 1566 1566 1569 1568 1570 1570 1571 1575
1484 1494 1492 1474 1469 1478 1475 1492 1485 1481 1476 1469 1477 1486 1490 1492 1496 1501 1508 1515 1520 1522 1524 1529 1533 1536 1538 1540 1543 1548 1551 1554 1555 1557 1557 1559 1560 1563 1562 1562 1561 1560 1560 1558 1570 1567 1568 1569 1571
1483 1484 1479 1476 1465 1470 1474 1510 1494 1487 1479 1472 1475 1480 1485 1489 1485 1484 1490 1505 1511 1513 1515 1519 1524 1528 1532 1536 1541 1544 1548 1551 1553 1554 1553 1553 1555 1557 1561 1558 1556 1552 1565 1561 1565 1565 1566 1567 1567
1490 1473 1471 1470 1478 1509 1477 1538 1516 1500 1496 1477 1478 1479 1480 1482 1484 1485 1483 1488 1497 1504 1511 1520 1522 1520 1526 1532 1537 1539 1543 1546 1548 1551 1548 1548 1548 1551 1553 1554 1556 1562 1557 1556 1559 1563 1564 1564 1564
1478 1469 1470 1464 1465 1471 1470 1492 1496 1487 1483 1476 1477 1479 1480 1480 1481 1482 1486 1487 1490 1496 1508 1512 1523 1520 1522 1526 1531 1535 1538 1542 1546 1546 1546 1546 1547 1547 1549 1550 1552 1551 1553 1557 1559 1560 1561 1561 1560
1470 1469 1463 1457 1462 1497 1471 1478 1491 1482 1481 1480 1482 1485 1486 1485 1482 1481 1482 1483 1492 1499 1496 1507 1513 1514 1516 1521 1523 1528 1532 1538 1540 1541 1542 1545 1544 1543 1546 1547 1548 1550 1553 1554 1556 1556 1557 1557 1557
1470 1467 1492 1489 1492 1507 1462 1469 1475 1471 1476 1481 1483 1486 1488 1487 1485 1482 1481 1481 1477 1489 1491 1504 1504 1508 1512 1512 1519 1521 1530 1536 1538 1536 1539 1540 1541 1540 1540 1541 1544 1547 1548 1550 1551 1552 1553 1554 1554
1476 1471 1486 1508 1499 1487 1453 1482 1473 1459 1469 1474 1478 1480 1482 1484 1486 1484 1481 1475 1480 1476 1496 1493 1498 1502 1504 1506 1506 1511 1519 1524 1531 1535 1535 1537 1537 1538 1539 1533 1540 1543 1544 1546 1548 1548 1548 1549 1550
1475 1483 1465 1481 1463 1477 1464 1461 1460 1459 1465 1473 1476 1478 1480 1481 1485 1489 1486 1484 1486 1493 1496 1490 1494 1498 1500 1501 1505 1507 1510 1522 1523 1528 1537 1533 1532 1532 1533 1535 1536 1538 1540 1541 1543 1543 1545 1545 1547
1473 1469 1487 1476 1504 1510 1481 1479 1480 1472 1471 1472 1474 1476 1480 1484 1486 1489 1491 1489 1489 1489 1489 1489 1493 1497 1500 1501 1503 1504 1511 1513 1519 1524 1519 1525 1525 1525 1529 1532 1532 1531 1534 1539 1540 1540 1541 1543 1546
1471 1475 1472 1468 1477 1502 1504 1483 1458 1466 1468 1470 1471 1474 1479 1483 1486 1488 1491 1491 1490 1491 1491 1492 1491 1493 1496 1497 1499 1502 1505 1510 1513 1518 1520 1522 1523 1523 1529 1529 1528 1529 1530 1535 1538 1539 1540 1543 1546
1462 1473 1475 1490 1495 1479 1483 1484 1451 1459 1463 1466 1469 1475 1480 1483 1487 1490 1491 1491 1490 1488 1488 1488 1490 1490 1489 1492 1492 1497 1504 1509 1513 1516 1518 1521 1519 1525 1528 1530 1527 1530 1532 1535 1534 1538 1539 1541 1543